This is the latest recevied weather packets stored in our database for station/object W0CHP-13. If no packets are shown the sender has not sent any weather packets the latest 10 day(s).
| Time | Temp. | Humidity | Pressure | Rain* | Wind** | Luminosity | Snow |
|---|---|---|---|---|---|---|---|
| 1777403416 | 16.67° C | 42% | 1012.3 hPa | 0 mm | - | 309 W/m² | - |
| 1777402818 | 16.11° C | 39% | 1012.3 hPa | 0 mm | - | 383 W/m² | - |
| 1777402216 | 15.56° C | 42% | 1012.3 hPa | 0 mm | - | 882 W/m² | - |
| 1777401617 | 15.56° C | 39% | 1012.3 hPa | 0 mm | - | 517 W/m² | - |
| 1777401016 | 16.67° C | 36% | 1012.3 hPa | 0 mm | - | 458 W/m² | - |
| 1777400418 | 17.78° C | 41% | 1012.3 hPa | 0 mm | - | 554 W/m² | - |
| 1777399816 | 16.67° C | 38% | 1012.3 hPa | 0 mm | - | 558 W/m² | - |
| 1777399218 | 15.56° C | 41% | 1012.3 hPa | 0 mm | - | 596 W/m² | - |
| 1777398617 | 15° C | 41% | 1012.5 hPa | 0 mm | - | 561 W/m² | - |
| 1777398015 | 15° C | 42% | 1012.3 hPa | 0 mm | - | 396 W/m² | - |
| 1777397417 | 14.44° C | 42% | 1012.3 hPa | 0 mm | - | 320 W/m² | - |
| 1777396815 | 15° C | 40% | 1012.3 hPa | 0 mm | - | 309 W/m² | - |
| 1777396218 | 15° C | 39% | 1012.3 hPa | 0 mm | - | 356 W/m² | - |
| 1777395616 | 15.56° C | 41% | 1012.5 hPa | 0 mm | - | 491 W/m² | - |
| 1777395018 | 15.56° C | 40% | 1012.3 hPa | 0 mm | - | 432 W/m² | - |
| 1777394417 | 15° C | 42% | 1012.3 hPa | 0 mm | - | 653 W/m² | - |
| 1777393815 | 14.44° C | 43% | 1012.5 hPa | 0 mm | - | 551 W/m² | - |
| 1777393217 | 13.89° C | 42% | 1012.3 hPa | 0 mm | - | 373 W/m² | - |
| 1777392616 | 15° C | 43% | 1012.3 hPa | 0 mm | - | 622 W/m² | - |
| 1777392018 | 15° C | 44% | 1012.3 hPa | 0 mm | - | 640 W/m² | - |
| 1777391416 | 15.56° C | 42% | 1012.5 hPa | 0 mm | - | 596 W/m² | - |
| 1777390818 | 15.56° C | 40% | 1012.5 hPa | 0 mm | - | 637 W/m² | - |
| 1777390217 | 15° C | 42% | 1012.3 hPa | 0 mm | - | 596 W/m² | - |
| 1777389615 | 14.44° C | 45% | 1012.3 hPa | 0 mm | - | 559 W/m² | - |
| 1777389017 | 14.44° C | 45% | 1012.3 hPa | 0 mm | - | 510 W/m² | - |
* Rain latest hour (hover to see other rain measurements)
** Current wind speed in m/s (hover to see current wind gust speed)